Погода в Кировограде

Погода в Кировограде : погода сейчас, прогноз погоды и архив. Всё, что Вы хотите узнать о погоде в Кировограде!

Хотите узнать прогноз погоды в Кировограде? Тогда Вам сюда: Погода в Кировограде

Поиск расширенной информации на нашем сайте:

Полезная информация:

Другие новости

Новости СМИ2

Главная страница сайта

Новости сайта

03.07.2017

Напоминаем, что на нашем специализированном сайте Метеоцентр.Азия вы можете получить высокодетализированные автоматические прогнозы погоды по пунктам России, СНГ и мира в авиационном формате (включающие направление и скорость ветра, видимость, явления погоды, количество и форму облачности, нижнюю и верхнюю границу облачности).

Рекомендуем:

Погода в Кировограде - сегодня

Время (UTC), дата Ветер
(°,м/с) 
Видим.   Явления Облачность Т
(°С)
Тd
(°С)
f(%) Тe
(°С)
Pmin
(гПа)
dP
(гПа)
Po
(мм)
O2
(г/м3)
Тmin Tmax R s Состояние
почвы
09 15.09.19 330 (СЗ) 20000 м    5/5 1000 м 
[Cu hum]
+18.9 +3.9 37 +19  1025.1  -1  754  283           
12 15.09.19 310 (СЗ) 20000 м    10/0 верхняя 
[Ci fib]
+20.7 +0.4 26 +21  1023.2  -1.8  752  282           
15 15.09.19 280 (З) 20000 м    10/0 верхняя 
[Ci fib]
+20.8 +0.3 25 +21  1021.3  -1.9  751  281           
18 15.09.19 230 (ЮЗ) 10 км    10/0 верхняя 
[Ci fib]
+16.6 +2.1 38 +17  1020.6  -0.9  750  285           
21 15.09.19 210 (ЮЗ) 10 км    4/0 верхняя 
[Ci fib]
+13.2 +1.6 45 +13  1019.7  -1.1  749  288           
00 16.09.19 230 (ЮЗ) 10 км    ясно 
+13.1 +0.8 43 +12  1018.2  -1.5  748  288           
03 16.09.19 230 (ЮЗ) 10 км    4/0 верхняя 
[Ci fib]
+11.5 +2.8 55 +10  1016.7  -1.6  747  288           
06 16.09.19 250 (З) 20000 м    3/0 верхняя 
[Ci fib]
+15.4 +4.8 49 +16  1015.3  -1.1  746  284  +11.4        мокрая 
09 16.09.19 250 (З) 20000 м    5/0 верхняя 
[Ci fib]
+22.7 +5.7 33 +23  1013.7  -1.1  745  276           
12 16.09.19 250 (З) 20000 м    5/0 верхняя 
[Ci fib]
+26.1 +2.7 22 +26  1010.6  -2.8  743  273           
15 16.09.19 290 (З) 20000 м    4/0 верхняя 
[Ci fib]
+25.3 +3.5 24 +25  1009.6  -1  743  273           
18 16.09.19 270 (З) 10 км    8/0 средняя, верхняя 
[Ac trans|Ci fib]
+20 +6.9 43 +20  1010.3  0.3  743  278    +27.4       
21 16.09.19 290 (З) 10 км    9/0 средняя 
[Ac trans]
+20.2 +8.4 47 +20  1010.5  0.3  743  277           
00 17.09.19 320 (СЗ) 10 км    9/0 средняя 
[Ac trans]
+17.5 +8.4 55 +18  1010.1  -0.6  743  280           
03 17.09.19 290 (З) 10 км  в посл. час ливневой дождь  10/8 1200 м кучево-дожд., средняя 
[Cb calv|Ac As]
+15.7 +8 60 +16  1009.8  -0.4  742  281           
06 17.09.19 290 (З) 9000 м  слаб. ливневой дождь  10/8 1000 м кучево-дожд., средняя 
[Cb calv|Ac As]
+12.2 +10.9 92 +15  1011.4  1.3  743  285  +12.2       
09 17.09.19 270 (З) 10 км  {ливн. осадки}  10/0 средняя 
[Ac As]
+13.2 +10.7 85 +15  1011  -0.3  743  284           
12 17.09.19 290 (З) 20000 м  {ливн. осадки}  6/6 1140 м 
[Cu hum]
+18 +8.4 53 +18  1009.6  -1.1  742  279           
15 17.09.19 280 (З) 20000 м    3/0 средняя 
[Ac trans]
+18.3 +4 39 +19  1008.3  -1.2  741  279           
18 17.09.19 220 (ЮЗ) 10 км    ясно 
+14.2 +6.1 58 +14  1009.1  0.5  742  283    +19.5     
21 17.09.19 260 (З) 10 км    4/0 средняя 
[Ac trans]
+13.6 +8 69 +14  1008.4  -0.8  741  283           
00 18.09.19 210 (ЮЗ) 10 км    9/0 средняя 
[Ac trans]
+12.3 +9.4 82 +13  1007.5  -0.9  740  284           
03 18.09.19 250 (З) 5000 м  слаб. ливневой дождь  10/6 1200 м кучево-дожд., средняя 
[Cb calv|Ac As]
+12 +10.1 88 +14  1006.3  -1.2  740  284           
06 18.09.19 250 (З) 20000 м  {ливн. осадки}  9/0 средняя 
[Ac trans]
+12.2 +10.9 92 +15  1006.3  740  283  +10.4       
09 18.09.19 290 (З) 20000 м    9/3 1000 м средняя 
[Sc|Ac trans]
+13 +5.3 59 +11  1007.9  1.6  741  284           
Время (UTC), дата Ветер
(°,м/с) 
Видим.   Явления Облачность Т
(°С)
Тd
(°С)
f(%) Тe
(°С)
Pmin
(гПа)
dP
(гПа)
Po
(мм)
O2
(г/м3)
Тmin Tmax R s Состояние
почвы

Для получения пояснительной информации подведите курсор к названию столбца.

ПОГОДА в Кировограде - архив

Всё, что Вы хотите узнать о погоде в Кировограде - удобно и подробно!

Выберите нужную дату (начиная с 1 января 2018* года) и нажмите кнопку "Найти".
Будут отображены архивные сводки погоды по пункту Кировоград, начиная с указанной даты.


Отображать данные в формате CSV (для использования в таблицах Excel)


Внимание! Наш архив погоды предназначен исключительно для личного некоммерческого использования в познавательных целях. Если Вам необходимы официальные справки о состоянии погоды (для производственных, юридических, коммерческих и т.п. целей), обращайтесь в органы Росгидромета.

*Примечание: данная дата относится к архиву по метеостанциям СССР (Россия, СНГ, Балтия).
Архив по метеостанциям Зарубежной Европы и Азии (кроме Китая) хранится 10 дней, по другим регионам земного шара (Китай, Африка, Америка, Австралия, Океания) - 1 день.

Кировоград - район местоположения метеостанции


Название, широта, долгота, высота метеостанции:
Кировоград 48.5°ш. 32.2°д. 171 м над ур. моря [Украина]

Дополнительная информация

В oтличие oт бoльшинства пoгoдных сайтoв мы публикуем пoдрoбную метеoинфoрмацию в детальнoм прoфессиoнальнoм фoрмате.

Характеристики температуры и влажнoсти вoздуха измеряются на высoте 2 м в тени вдали oт зданий и деревьев.
Скoрoсть ветра измеряется на высoте 10 м (на урoвне рoста челoвека скoрoсть ветра ниже в 1.5-2 раза). Если метеoстанция нахoдится в гoрoде или в лесу, тo скoрoсть ветра занижена на 2-4 м/с пo сравнению с oткрытым местoм. Скoрoсть ветра над акватoриями крупных рек и oзёр, а также на вершинах хoлмoв на 2-5 м/с выше, чем в oбычных услoвиях.
Атмoсфернoе давление в разных тoчках местнoсти мoжет значительнo oтличаться oт давления на метеoстанции, в зависимoсти oт услoвий рельефа (при пoдъёме на 10 м давление пoнижается примернo на 1 мм рт.ст.).